Wetbulb
51.93 49.43 47.70 51.31 52.44 53.74 55.81 54.49 55.79 58.13 61.13 60.46 58.73 58.22 59.05 63.06 63.77 63.37 63.54 63.17 64.23 64.62 66.86 67.91 69.03 68.32 69.29 69.42 69.14 70.18 70.76 70.83 70.33 67.42 67.12 68.97 70.16 71.55 69.92 68.60 69.55 70.35 70.54 70.62
48.73 46.77 53.01 54.83 55.21 54.13 55.38 54.22 55.22 58.35 61.30 59.65 59.51 57.37 57.16 59.05 61.84 64.36 64.65 63.84 64.79 64.35 66.00 67.64 68.52 69.21 68.82 69.38 70.39 70.78 71.59 71.39 69.15 68.26 69.43 71.73 71.44 71.63 72.30 72.51 72.23 72.27 71.46 71.41
46.63 49.43 54.90 54.41 53.81 53.15 54.07 54.23 53.87 54.44 58.87 60.75 57.32 54.10 55.77 59.15 60.90 61.70 65.80 65.79 66.18 65.07 65.24 66.65 67.69 69.01 69.51 69.41 70.61 70.64 72.79 71.85 71.13 72.46 71.19 71.65 72.48 72.46 71.64 72.46 72.67 73.35 73.27 73.19
47.81 52.00 52.35 51.57 51.56 51.88 47.25 58.20 57.60 57.42 53.27 50.94 57.66 47.48 51.90 55.65 58.10 60.02 63.72 64.36 65.64 65.30 66.40 67.13 67.53 68.28 68.26 65.71 68.87 69.49 71.27 72.27 73.09 70.21 67.75 66.41 70.03 69.14 70.82 70.34 72.12 73.37 73.99 74.08
45.58 49.35 49.77 48.93 50.82 53.44 51.67 56.12 57.67 57.64 55.07 51.17 54.17 46.93 50.50 54.86 53.74 59.98 61.86 64.00 64.24 65.41 66.56 66.74 67.42 68.28 67.13 66.79 68.48 69.13 67.39 69.62 71.98 69.38 66.72 67.66 69.39 70.40 71.81 70.68 68.08 69.75 71.76 71.99
46.98 50.43 50.06 50.50 53.45 53.35 55.17 53.03 52.36 49.79 48.97 42.46 46.06 47.67 47.15 51.86 55.37 59.99 61.27 62.44 63.57 65.14 66.81 67.48 68.28 68.29 68.01 68.42 67.30 67.07 66.84 68.08 71.83 71.01 68.72 69.75 68.65 67.33 67.84 67.66 67.84 68.97 68.83 68.29
43.66 45.91 47.59 49.95 46.66 48.82 48.88 45.23 40.92 41.76 41.62 41.08 44.35 47.79 48.90 55.78 59.84 60.19 59.43 60.90 63.02 64.51 66.66 66.64 66.82 66.41 67.01 65.80 66.64 67.77 68.33 71.09 70.12 68.74 68.19 67.36 68.48 69.32 67.61 67.12 68.27 68.36 65.74 64.80
38.45 39.25 44.44 48.96 47.14 45.73 44.17 44.69 41.12 37.55 38.70 41.81 48.31 44.98 50.92 58.75 59.85 60.69 62.50 62.71 64.18 62.97 65.82 66.86 66.17 66.20 65.47 66.67 68.39 71.95 72.05 69.87 68.71 70.25 68.27 68.75 69.91 68.63 67.25 65.65 64.92 64.28 62.92 62.93
37.54 39.19 47.00 48.30 48.56 48.28 45.38 44.38 47.16 41.90 41.52 40.24 46.34 49.88 54.05 57.02 58.34 60.88 61.34 61.83 63.56 63.57 63.45 66.14 66.73 67.08 66.81 67.09 71.55 72.52 71.07 69.70 70.61 70.19 69.57 69.19 68.63 64.95 64.17 63.66 63.31 62.91 62.76 64.05
42.65 38.83 46.51 47.32 47.36 47.66 46.18 47.46 42.82 39.59 37.08 34.69 40.28 45.85 47.18 53.07 56.27 59.58 59.35 61.43 60.61 63.43 65.20 66.11 66.90 69.23 71.67 72.29 72.31 72.31 70.89 69.85 70.35 69.77 69.28 67.91 65.78 64.42 63.91 62.92 62.01 62.28 62.32 62.15
42.44 40.52 43.81 42.73 42.30 42.99 43.02 44.14 43.32 41.31 39.81 37.00 35.78 39.87 51.69 54.75 57.24 57.90 57.40 59.98 61.82 64.92 65.57 65.88 67.59 71.36 71.83 71.88 71.35 70.70 70.48 69.64 69.60 69.07 68.14 66.61 63.86 62.55 62.26 62.19 61.70 61.80 60.40 60.03
45.35 39.76 38.29 43.08 45.88 46.31 44.69 44.58 43.56 39.43 38.60 38.37 38.12 40.20 56.25 57.88 59.12 58.24 57.86 60.10 62.17 66.12 66.19 67.21 70.04 70.53 70.34 69.88 69.77 69.44 69.27 68.89 69.34 68.38 65.61 63.90 62.22 61.45 61.08 60.71 60.40 60.48 59.35 58.85
46.04 38.13 37.61 39.75 41.34 42.85 42.70 44.05 42.39 40.94 38.71 38.06 37.44 40.14 57.01 55.98 56.53 57.93 58.94 64.02 65.09 66.16 67.41 68.63 69.15 69.21 68.85 68.90 68.51 68.18 68.21 68.11 66.72 65.71 63.22 61.13 60.28 60.51 59.24 58.94 58.87 58.08 55.64 53.63
51.63 38.42 38.03 38.18 39.17 42.15 41.60 44.37 44.25 43.35 38.09 38.55 40.03 43.47 54.99 55.15 56.03 57.27 61.09 65.89 66.70 67.45 67.73 68.23 68.14 68.09 68.05 68.07 67.17 66.62 66.28 66.65 65.25 63.03 61.04 59.82 59.28 58.95 58.51 57.97 57.29 55.85 53.40 51.19
44.64 40.05 39.70 41.54 42.65 44.95 43.93 44.88 45.38 41.71 41.29 40.86 44.17 49.94 55.36 57.11 57.80 57.44 63.89 67.10 66.74 66.50 67.31 67.51 67.54 67.43 67.53 67.08 66.58 66.27 65.63 63.98 62.38 60.44 59.59 58.68 58.20 57.85 57.17 55.96 54.97 55.11 52.42 48.93
48.08 41.99 41.73 41.06 44.65 43.88 43.16 45.27 45.75 44.39 45.22 43.01 44.01 50.47 57.75 60.52 57.67 59.08 64.16 66.51 66.24 66.40 67.33 67.55 67.68 67.08 66.40 66.23 66.01 64.90 62.47 61.43 61.32 59.81 58.67 58.23 57.36 56.91 54.99 53.93 54.13 54.71 53.30 51.36
46.60 45.42 44.08 37.78 42.33 43.59 39.72 43.23 45.06 45.42 45.94 45.70 42.63 46.70 55.14 56.08 58.38 59.25 62.31 66.48 66.35 66.83 67.47 67.45 66.72 66.68 66.46 66.23 65.26 62.25 61.47 61.15 60.40 59.42 58.81 57.96 57.04 55.35 54.01 54.22 54.06 53.29 53.23 53.29
46.28 44.39 42.11 39.25 39.13 34.65 42.96 46.52 48.68 47.92 49.38 50.24 49.64 48.16 56.49 58.86 59.66 60.79 62.60 66.36 66.78 67.19 67.45 67.01 66.91 66.59 66.41 65.47 63.69 62.44 62.04 60.76 59.77 58.73 58.23 57.31 55.27 54.44 54.34 53.79 52.98 52.79 52.90 51.88
48.32 45.91 42.39 39.79 39.25 44.12 49.18 50.06 51.49 47.80 47.82 58.05 57.14 57.23 58.50 59.02 58.66 58.02 61.45 66.43 68.09 67.88 68.00 67.47 67.35 66.96 65.76 63.97 62.99 61.93 60.76 59.95 58.78 58.08 57.63 56.18 54.85 54.00 54.02 53.06 52.76 52.71 52.24 52.14
47.03 48.24 45.86 41.12 38.31 38.63 46.81 55.29 59.27 54.81 45.89 58.82 59.17 59.43 61.60 60.26 53.55 56.54 60.47 64.38 68.42 68.62 68.45 67.34 67.30 66.74 64.10 62.60 62.44 61.15 59.61 59.02 57.78 57.72 57.75 55.82 54.81 54.22 53.08 53.16 53.29 53.10 53.87 53.72
42.86 44.29 44.09 44.63 42.33 44.89 54.12 56.46 58.93 47.21 49.39 58.31 58.72 61.09 59.61 59.66 59.44 62.19 64.99 66.99 67.46 67.94 67.24 67.22 67.06 65.13 63.54 62.58 61.75 59.75 59.13 58.22 58.13 57.98 57.89 56.08 54.83 54.46 54.34 53.71 53.40 53.79 53.36 53.52
43.51 41.86 40.82 43.21 43.03 40.19 55.76 55.41 51.74 53.88 56.43 57.47 58.87 61.06 61.50 61.04 61.32 62.44 66.41 66.68 66.68 66.35 66.71 67.31 65.34 63.44 62.91 62.30 61.08 59.06 58.20 58.44 58.23 57.76 57.35 56.04 54.60 56.95 55.63 53.97 54.06 53.85 53.45 52.44
45.71 47.81 45.33 47.29 48.19 52.61 55.01 55.26 57.08 56.26 55.50 58.12 58.87 59.89 60.85 60.73 60.53 65.58 65.92 66.13 66.50 66.77 66.99 66.51 63.47 62.28 62.18 61.56 61.03 58.66 58.11 58.09 56.84 56.81 56.28 55.41 55.13 55.30 54.42 53.65 53.17 52.59 53.49 53.49
49.92 52.78 47.85 47.93 49.57 52.16 56.27 56.43 57.24 57.25 58.12 59.49 60.95 58.33 59.57 62.82 63.75 64.79 65.76 65.85 66.00 66.19 66.22 63.78 62.58 61.42 60.25 60.54 60.30 59.62 58.01 57.14 56.19 55.27 54.75 54.41 53.49 54.10 54.36 54.17 54.71 54.44 53.97 53.15
49.11 51.56 49.52 49.16 51.75 52.84 56.50 56.24 57.87 58.09 59.19 60.44 60.15 61.63 60.78 61.12 61.91 62.22 61.42 62.63 64.32 65.24 63.13 62.95 62.14 61.11 59.87 59.99 59.13 58.90 57.79 57.06 55.42 54.62 53.93 54.01 54.36 54.22 53.81 53.16 53.10 53.44 53.66 52.90
51.57 48.74 48.50 47.80 52.95 52.68 53.74 57.16 59.27 57.97 58.49 59.39 58.03 59.31 62.98 62.41 59.28 61.50 64.90 64.70 63.97 62.88 62.58 62.32 61.69 60.90 60.03 59.26 58.44 58.25 58.15 57.49 55.73 54.50 54.48 54.01 53.66 52.05 52.00 52.44 52.74 52.69 52.71 50.36
MSLP
1001.99 1002.82 1002.94 1002.66 1003.35 1003.73 1003.90 1003.91 1004.43 1004.94 1004.78 1006.03 1006.64 1007.53 1008.18 1008.17 1007.77 1007.43 1007.48 1007.49 1007.76 1008.53 1009.15 1009.28 1009.60 1010.17 1010.28 1010.76 1011.19 1011.38 1012.24 1012.77 1013.32 1013.93 1014.30 1014.51 1014.42 1014.37 1014.52 1014.62 1014.85 1015.08 1014.84 1014.81
1003.07 1002.92 1002.29 1002.48 1002.51 1002.95 1003.24 1003.15 1003.88 1003.69 1004.16 1005.41 1006.72 1007.67 1008.45 1007.96 1007.59 1006.25 1006.09 1006.77 1007.08 1007.88 1008.82 1008.98 1009.65 1009.78 1009.64 1010.10 1010.77 1011.53 1012.17 1012.65 1013.25 1013.52 1013.66 1014.02 1014.28 1014.25 1014.05 1014.06 1014.38 1014.38 1014.40 1014.43
1003.29 1002.38 1001.98 1002.35 1001.97 1002.53 1002.45 1002.58 1002.58 1002.86 1004.43 1005.65 1007.20 1008.31 1008.20 1007.86 1007.14 1006.43 1006.64 1006.70 1006.91 1007.18 1008.12 1008.75 1009.03 1009.12 1009.48 1010.28 1010.74 1011.42 1011.92 1012.26 1012.55 1013.49 1013.90 1014.22 1013.92 1014.20 1014.04 1014.01 1014.19 1014.04 1013.91 1014.00
1002.93 1001.99 1001.99 1001.79 1001.60 1001.73 1001.89 1001.28 1001.35 1002.40 1004.08 1005.60 1006.37 1007.38 1007.37 1007.08 1006.41 1006.47 1006.69 1006.41 1006.77 1007.13 1007.50 1008.01 1008.47 1008.82 1009.15 1009.87 1010.54 1011.36 1011.82 1012.24 1012.76 1012.93 1012.96 1013.85 1014.41 1014.34 1014.20 1014.29 1014.18 1013.91 1013.85 1013.99
1002.35 1001.83 1001.49 1001.38 1000.63 1000.79 1000.57 1000.46 1000.93 1001.72 1003.20 1004.63 1006.65 1007.50 1006.23 1006.00 1006.58 1006.08 1005.78 1005.59 1005.38 1006.16 1006.73 1007.51 1008.03 1008.07 1008.70 1009.63 1010.26 1011.05 1011.71 1012.32 1012.72 1012.67 1012.80 1013.38 1014.25 1014.59 1014.61 1014.73 1014.60 1014.58 1014.53 1014.34
1002.21 1001.31 1001.15 1000.54 1000.00 1000.12 1000.02 1000.40 1000.85 1001.98 1003.42 1004.74 1005.08 1006.05 1006.27 1005.73 1004.82 1005.70 1005.67 1005.52 1004.54 1004.95 1006.15 1007.15 1007.66 1008.14 1008.68 1009.42 1010.26 1011.12 1011.64 1012.21 1012.42 1012.74 1013.14 1013.53 1014.16 1014.61 1014.69 1014.72 1014.79 1015.24 1015.14 1015.01
1002.50 1001.53 1000.74 1000.34 1000.20 999.70 1000.18 1001.42 1002.43 1003.60 1004.29 1005.41 1004.91 1005.44 1004.60 1004.25 1004.15 1004.46 1004.42 1004.21 1003.76 1004.10 1005.34 1006.73 1007.54 1008.47 1009.00 1009.21 1010.07 1010.86 1011.57 1012.10 1012.25 1012.78 1013.50 1013.66 1013.95 1014.23 1014.36 1014.53 1014.88 1015.43 1015.59 1015.53
1003.15 1002.07 1000.72 999.96 999.96 1000.02 1000.31 1001.68 1002.90 1004.03 1005.25 1005.39 1005.21 1005.19 1003.63 1003.45 1003.53 1003.63 1003.19 1003.27 1004.52 1004.17 1004.71 1006.00 1007.29 1007.98 1008.93 1009.20 1009.72 1010.55 1011.25 1011.97 1012.51 1012.95 1013.50 1013.65 1013.86 1014.35 1014.60 1014.83 1015.18 1015.54 1015.86 1015.95
1002.85 1001.96 1000.50 999.92 999.48 1000.01 1000.18 1001.06 1001.64 1003.30 1005.14 1005.64 1005.49 1005.05 1003.61 1003.11 1003.14 1002.78 1003.21 1004.20 1003.66 1003.85 1004.19 1005.40 1006.67 1007.62 1008.34 1009.26 1009.68 1010.36 1011.12 1011.97 1012.58 1013.06 1013.39 1013.74 1014.17 1014.52 1015.08 1015.39 1015.49 1015.79 1016.02 1016.30
1001.77 1002.02 1000.72 999.80 999.69 999.31 1000.05 1000.20 1001.81 1003.60 1005.16 1006.12 1006.22 1005.65 1003.93 1003.29 1002.91 1002.26 1002.90 1002.60 1002.62 1003.26 1003.76 1004.78 1006.22 1007.55 1008.21 1008.72 1009.52 1010.34 1011.05 1011.61 1012.33 1012.94 1013.36 1013.91 1014.48 1014.73 1015.15 1015.52 1015.89 1016.05 1016.26 1016.36
1000.99 1001.83 1000.77 1000.43 1000.06 1000.02 999.95 1000.48 1001.65 1002.98 1004.46 1005.48 1005.89 1005.25 1002.33 1002.01 1001.50 1001.67 1002.12 1002.19 1001.96 1002.53 1003.33 1004.47 1005.62 1007.18 1007.97 1008.88 1009.47 1010.29 1011.10 1011.51 1012.21 1012.98 1013.50 1014.12 1014.80 1015.12 1015.47 1015.67 1015.94 1016.16 1016.33 1016.61
999.94 1000.97 1001.55 1000.52 999.60 999.43 999.74 1000.21 1001.23 1002.78 1004.14 1004.49 1004.25 1003.04 1001.17 1000.58 1000.46 1001.25 1001.25 1001.55 1001.64 1002.54 1003.43 1004.90 1005.67 1007.28 1008.42 1009.04 1009.64 1010.16 1010.82 1011.33 1011.92 1012.60 1013.47 1014.25 1014.85 1015.33 1015.76 1015.94 1016.25 1016.42 1016.69 1016.88
999.95 1000.99 1001.84 1001.16 1000.16 999.81 999.63 999.55 1000.03 1000.76 1002.29 1003.39 1003.73 1002.25 1000.83 1001.02 1001.11 1001.36 1001.52 1001.33 1001.89 1002.85 1003.89 1005.08 1006.01 1007.16 1008.36 1008.87 1009.42 1010.12 1010.63 1011.07 1011.87 1012.86 1013.82 1014.57 1015.35 1015.87 1016.28 1016.46 1016.67 1016.87 1017.11 1017.34
1000.93 1001.07 1001.63 1001.29 1000.85 1000.53 999.84 999.33 999.58 999.73 1001.53 1001.71 1001.60 1001.05 1000.88 1001.14 1001.13 1001.60 1001.22 1001.34 1002.12 1002.97 1003.67 1004.98 1006.31 1007.46 1008.26 1008.88 1009.32 1010.11 1010.85 1011.19 1012.16 1013.02 1014.04 1015.04 1015.73 1016.18 1016.55 1016.82 1017.04 1017.28 1017.53 1017.73
1001.77 1002.09 1001.61 1000.85 1000.59 1000.12 999.52 999.16 999.01 999.56 999.63 1000.29 999.67 1000.11 999.73 999.68 999.89 1000.76 1000.90 1001.46 1002.24 1003.17 1003.92 1004.81 1006.21 1007.54 1008.01 1009.01 1009.69 1010.06 1010.80 1011.63 1012.50 1013.41 1014.25 1015.21 1016.07 1016.47 1016.87 1017.15 1017.50 1017.86 1018.10 1018.28
1002.61 1002.70 1002.30 1001.26 999.97 999.64 999.15 998.81 998.60 998.55 998.42 998.63 998.46 998.57 998.01 997.71 999.20 1000.06 1000.30 1000.73 1001.53 1002.09 1003.55 1005.03 1005.97 1006.68 1007.45 1008.56 1009.58 1010.20 1011.00 1012.04 1012.86 1014.11 1014.96 1015.66 1016.33 1016.96 1017.34 1017.59 1017.79 1018.08 1018.41 1018.54
1003.77 1004.12 1003.65 1002.36 1000.84 999.80 999.25 998.41 998.18 998.19 998.02 997.72 997.99 997.48 997.45 998.44 998.78 998.98 998.95 999.45 1000.76 1002.01 1003.00 1004.21 1005.35 1006.38 1007.41 1007.90 1008.91 1009.98 1011.15 1012.37 1013.36 1014.23 1015.10 1015.72 1016.32 1017.02 1017.68 1018.08 1018.05 1018.30 1018.55 1018.59
1003.92 1004.82 1004.72 1003.69 1002.07 1000.94 998.52 997.58 997.60 997.82 997.79 998.18 997.73 997.36 997.05 996.82 996.84 996.92 998.07 998.89 999.95 1001.17 1002.30 1003.30 1004.69 1006.03 1007.02 1008.17 1009.29 1010.00 1011.20 1012.34 1013.57 1014.61 1015.28 1015.88 1016.67 1017.25 1017.52 1018.15 1018.51 1018.49 1018.41 1018.53
1003.81 1005.01 1005.73 1004.78 1003.52 1001.41 999.16 998.61 998.12 997.88 998.53 998.62 998.41 997.70 996.45 996.38 997.17 998.25 998.43 999.14 999.09 999.93 1001.72 1002.98 1004.06 1005.35 1006.50 1007.83 1009.02 1010.11 1012.02 1012.99 1013.88 1014.96 1015.51 1015.98 1016.61 1017.24 1017.74 1017.77 1018.61 1018.56 1018.47 1018.49
1004.04 1004.64 1006.36 1005.54 1004.83 1002.78 1001.11 999.52 998.24 997.90 999.35 999.57 999.07 998.28 997.88 997.16 997.99 997.50 998.08 998.74 999.88 1001.25 1002.23 1003.43 1004.41 1005.32 1006.53 1007.54 1008.67 1010.19 1011.97 1013.27 1014.08 1014.71 1015.29 1015.71 1016.48 1017.33 1017.70 1017.81 1017.94 1018.23 1018.22 1018.19
1005.12 1004.93 1005.68 1005.16 1004.92 1003.16 1002.21 1000.50 998.77 999.87 1002.62 1001.21 1000.57 999.29 998.47 997.87 996.95 995.84 997.38 999.40 1000.66 1001.98 1003.76 1005.58 1006.81 1007.79 1007.96 1008.41 1009.07 1010.41 1011.69 1012.96 1013.69 1014.18 1014.96 1015.61 1016.32 1017.06 1017.33 1017.48 1017.78 1018.06 1018.00 1017.94
1006.46 1006.66 1006.04 1004.97 1004.74 1004.04 1002.70 1001.50 1002.27 1004.05 1003.04 1002.14 1001.52 1000.20 999.65 998.55 998.61 998.28 998.29 999.69 1000.76 1001.90 1003.38 1004.38 1006.26 1008.46 1008.74 1008.80 1009.34 1010.43 1011.51 1012.43 1013.72 1013.88 1014.70 1015.66 1016.08 1016.80 1017.11 1017.37 1017.35 1017.83 1018.02 1017.88
1007.26 1007.42 1007.46 1006.35 1005.31 1004.82 1004.27 1003.66 1003.76 1004.07 1003.76 1002.40 1001.67 1000.64 1000.26 999.41 999.04 998.92 999.51 1000.09 1001.00 1001.80 1002.51 1003.47 1004.52 1006.32 1007.88 1008.69 1009.23 1010.36 1011.35 1012.49 1013.57 1013.88 1014.86 1015.74 1016.15 1016.32 1016.75 1017.25 1017.62 1017.71 1017.79 1017.41
1007.32 1007.39 1007.30 1006.81 1005.41 1005.06 1004.26 1003.33 1003.45 1003.56 1003.24 1002.56 1002.11 1001.12 1001.15 1001.30 1000.68 1000.78 1000.64 1001.37 1001.88 1002.51 1003.21 1004.37 1006.05 1006.47 1007.16 1008.34 1009.05 1010.34 1011.26 1012.23 1013.32 1013.99 1014.69 1015.49 1016.14 1016.27 1016.43 1016.94 1017.54 1017.49 1017.40 1017.16
1007.31 1007.08 1006.93 1006.71 1005.79 1004.61 1003.96 1003.59 1002.75 1001.84 1002.76 1002.64 1002.19 1002.16 1001.37 1001.80 1002.22 1002.17 1002.26 1002.19 1001.57 1001.83 1003.44 1004.62 1005.26 1005.70 1007.11 1008.09 1008.93 1010.33 1011.42 1012.20 1013.28 1014.02 1014.55 1015.20 1015.92 1016.03 1016.14 1016.46 1016.87 1016.93 1016.59 1016.52
1006.64 1006.25 1006.33 1005.71 1005.10 1004.90 1004.02 1002.98 1002.65 1001.84 1001.64 1002.91 1001.82 1002.26 1001.78 1001.52 1001.81 1002.83 1003.07 1002.83 1002.75 1002.71 1003.90 1005.56 1006.19 1006.13 1007.61 1007.95 1008.51 1009.93 1010.97 1011.82 1013.04 1013.89 1014.33 1014.66 1015.32 1015.55 1015.55 1016.09 1016.37 1016.12 1015.87 1015.64
Wind_Speed
5 1 7 12 7 8 8 6 5 7 10 6 11 7 6 4 7 12 11 9 11 9 9 13 13 13 6 6 6 11 10 9 7 3 3 1 2 2 2 3 3 5 4 4
6 6 12 6 8 5 8 2 7 4 12 6 8 11 5 5 8 14 16 12 13 9 12 8 10 11 12 10 7 8 11 10 7 4 2 2 2 2 3 3 5 6 6 6
8 9 4 7 13 7 6 5 7 9 11 6 11 7 7 6 12 9 4 5 10 13 14 10 15 15 15 8 9 8 8 10 9 8 4 2 3 1 1 1 3 4 5 5
8 9 11 14 12 5 7 18 9 14 7 7 11 6 7 10 10 9 9 2 8 8 15 14 17 17 14 8 8 9 8 9 7 8 5 6 3 2 1 1 3 1 1 2
12 4 9 7 13 3 14 4 15 17 18 5 14 2 8 2 5 11 11 7 9 10 19 18 18 17 14 8 8 10 7 6 6 10 6 6 6 3 4 3 3 4 4 6
10 4 4 9 16 8 12 5 4 4 6 3 6 6 6 7 10 6 7 11 11 11 18 15 14 11 12 8 7 8 9 6 7 7 6 7 6 6 4 4 2 2 3 3
7 10 6 4 8 7 5 6 4 5 5 6 3 4 9 9 6 13 16 16 16 16 15 17 14 10 10 9 8 7 9 8 9 10 8 7 7 4 5 5 4 5 3 3
7 11 4 5 8 9 5 9 7 7 4 7 2 5 8 4 5 6 10 10 10 11 14 16 14 14 9 9 10 8 11 12 10 9 7 6 7 4 4 5 5 5 3 3
6 8 9 5 5 8 11 3 9 8 1 4 3 6 11 3 5 9 8 16 16 13 11 17 14 9 10 8 10 12 12 11 10 9 7 7 7 8 8 7 6 4 4 5
10 8 15 14 2 5 8 4 1 4 3 3 4 5 7 5 12 9 8 12 8 9 14 18 16 10 10 13 11 11 10 11 8 8 7 8 8 8 8 7 7 6 6 6
9 7 14 5 6 9 7 4 4 7 6 7 3 9 9 16 19 11 10 10 10 12 17 17 15 13 12 12 12 11 9 10 10 8 8 10 7 7 7 7 6 6 6 6
15 8 8 16 10 5 6 10 9 7 8 3 6 9 5 20 17 9 9 3 8 16 18 15 16 15 14 13 12 10 9 10 9 9 9 9 8 7 7 7 6 6 7 6
3 1 5 12 8 6 4 5 6 6 5 7 7 8 1 4 6 3 5 9 13 18 16 16 16 15 13 12 11 9 10 12 11 10 9 7 7 7 6 7 7 7 7 7
8 4 7 9 10 5 4 8 5 5 6 6 8 4 4 5 12 6 6 14 17 17 20 18 15 14 14 13 12 10 10 13 11 9 8 7 7 7 6 6 7 7 7 7
5 3 5 8 9 6 3 5 9 4 7 6 11 10 11 16 18 11 9 16 18 18 19 20 18 15 14 13 10 11 11 9 11 11 10 9 7 7 7 7 7 6 7 6
6 4 7 5 8 4 3 5 7 6 5 5 4 7 9 19 10 11 16 22 22 24 20 18 18 18 16 15 13 11 11 11 13 11 11 9 8 7 7 6 7 7 6 5
4 6 9 7 5 7 5 4 4 5 5 5 4 11 7 6 15 17 18 24 21 20 20 20 20 18 15 16 15 15 13 12 12 12 10 9 8 8 7 6 6 6 6 4
2 3 1 6 6 2 10 5 7 7 5 6 6 8 13 17 23 22 17 20 21 22 22 22 20 17 16 13 14 15 14 13 12 11 10 9 8 7 7 7 6 4 4 5
6 6 4 1 1 7 6 4 2 1 3 12 13 13 7 9 4 3 9 11 24 25 21 19 19 18 17 17 16 17 13 12 11 10 10 9 8 8 7 8 6 4 4 3
4 7 6 3 1 6 4 15 16 4 4 19 17 14 5 11 5 7 16 11 16 16 15 17 18 17 17 17 18 17 14 12 10 10 10 9 8 7 7 6 7 4 3 5
6 3 8 6 4 4 12 18 12 10 7 18 18 14 6 7 1 1 16 14 14 18 16 10 7 7 12 14 16 15 13 12 11 10 10 8 7 7 7 7 3 4 3 2
1 2 3 3 4 5 14 8 9 4 7 9 12 10 9 11 8 11 18 22 23 23 24 21 13 9 11 14 15 15 13 11 10 10 10 9 8 6 6 6 4 3 3 2
4 5 3 2 5 4 7 5 6 5 6 8 11 5 5 6 12 15 19 21 21 22 18 18 20 19 15 14 15 15 11 12 10 10 9 7 7 6 6 5 4 2 3 3
4 4 3 3 2 4 6 4 6 6 2 5 9 7 9 7 8 11 17 16 11 9 11 14 16 16 16 13 14 13 13 12 11 10 8 7 7 6 4 3 3 4 4 4
5 1 2 6 7 7 5 5 8 10 3 3 5 6 2 6 1 4 6 7 11 13 16 19 20 18 16 15 14 13 13 12 10 9 7 7 6 6 5 5 5 5 6 6
6 7 5 6 4 4 9 9 9 7 18 4 3 0 3 3 3 3 3 10 11 16 16 13 13 16 14 15 16 14 14 13 12 9 7 6 5 5 5 4 4 9 11 10
Wind_Direction
300 118 241 255 182 197 196 188 177 131 207 143 196 188 302 343 203 188 197 180 191 186 169 184 176 185 122 132 183 166 147 153 140 137 131 94 217 184 186 194 240 235 231 213
348 232 244 257 252 218 215 234 192 288 156 144 176 237 258 263 256 212 193 192 186 146 157 153 151 160 185 180 150 144 163 156 148 174 139 159 174 208 192 178 227 219 216 215
197 241 304 246 270 248 251 218 166 211 161 212 118 306 293 286 224 254 205 186 200 162 166 161 163 176 188 172 148 140 152 165 165 109 114 1 30 341 46 294 258 224 239 216
231 252 251 269 265 178 198 226 231 209 161 196 207 228 229 216 244 247 239 73 213 183 175 171 175 184 178 180 144 129 151 161 145 156 136 150 214 200 288 186 276 184 263 80
240 235 261 265 255 219 251 228 221 206 206 147 205 154 273 180 222 213 201 216 172 183 186 182 184 185 186 155 159 151 159 149 166 171 155 164 191 213 151 266 253 49 60 69
236 245 221 239 265 246 267 290 29 64 136 52 199 143 262 209 203 164 191 186 189 167 186 179 193 176 192 183 137 140 149 173 154 153 164 184 165 187 140 182 187 115 78 62
306 273 275 227 294 310 84 61 337 344 359 223 191 112 227 219 199 162 191 194 183 163 153 171 180 185 198 174 138 137 151 146 133 126 146 153 167 177 164 172 130 124 90 57
192 286 235 243 188 226 264 158 155 199 214 252 136 244 261 259 142 183 233 215 173 159 145 166 176 183 196 175 141 140 138 128 137 129 143 144 127 113 86 96 108 109 117 120
173 264 278 266 254 126 280 226 190 115 63 78 226 294 309 60 296 248 213 194 175 176 152 157 170 189 182 179 154 140 132 135 141 140 136 119 119 118 115 109 98 106 103 90
225 248 262 272 271 293 161 207 283 9 167 280 296 293 240 208 239 239 226 238 160 161 150 158 163 162 151 148 141 134 142 145 145 138 128 124 126 119 119 117 113 108 102 95
168 166 263 35 173 233 326 309 65 119 138 164 190 254 219 201 216 217 219 203 205 158 154 160 147 145 140 140 140 143 148 136 130 130 125 119 116 111 108 109 103 106 98 95
205 167 216 245 232 223 206 227 187 144 260 227 157 263 223 208 208 183 242 262 170 163 153 150 135 137 144 145 145 144 134 122 120 112 109 114 111 101 101 98 96 101 91 79
198 203 234 296 327 356 226 237 200 125 86 199 150 254 302 160 247 208 192 153 146 151 146 142 139 148 152 145 138 136 134 123 120 121 119 112 105 110 105 99 100 93 91 84
6 117 156 212 212 187 300 320 280 144 134 203 219 212 227 215 240 157 170 153 153 156 153 149 149 153 153 150 146 135 135 130 130 120 111 107 112 117 114 109 102 101 100 96
63 264 189 216 204 203 174 291 313 211 220 165 238 192 201 201 212 176 176 159 161 160 159 162 158 157 150 150 145 138 131 120 123 116 115 120 117 111 113 105 102 104 97 104
355 308 337 301 308 55 337 314 299 262 263 248 172 231 208 210 120 166 173 170 176 173 162 161 158 154 154 153 150 136 126 127 125 123 125 124 117 114 116 121 124 121 130 126
32 12 343 279 311 7 339 222 254 269 264 224 283 233 154 158 186 187 183 180 175 170 161 159 159 158 161 157 148 140 133 128 128 132 137 134 130 129 136 138 131 136 144 148
273 45 47 282 31 289 250 225 221 219 280 19 314 295 188 190 204 199 189 170 168 166 165 161 161 158 153 140 138 129 131 132 134 137 137 133 132 139 142 140 152 159 152 156
163 114 310 250 181 278 318 19 318 157 15 22 358 332 243 199 130 200 151 182 172 174 160 157 157 156 141 142 137 126 129 133 135 143 142 142 142 146 155 153 178 198 170 186
314 104 149 0 246 257 296 323 315 226 50 354 349 345 281 136 148 226 172 182 163 151 149 147 148 144 138 138 135 130 135 142 147 153 153 148 146 155 168 172 184 206 193 210
315 322 206 226 231 281 338 319 308 64 308 330 344 327 307 242 330 94 123 108 113 117 111 100 100 114 134 133 133 134 143 155 159 151 147 145 153 166 174 175 189 221 205 193
282 347 306 83 187 301 349 352 67 260 290 312 330 328 298 289 87 97 111 119 122 123 122 132 121 157 165 149 142 143 153 152 156 146 144 157 158 173 175 176 206 228 207 183
19 151 239 197 196 207 274 190 165 194 253 332 333 341 348 30 127 133 131 128 131 142 153 146 147 156 166 160 151 151 149 146 149 136 145 157 164 171 175 171 214 221 248 250
289 185 222 0 197 247 252 311 184 204 187 314 348 58 34 53 104 112 115 129 137 123 148 146 155 155 147 151 145 148 147 142 143 144 148 153 165 178 192 165 204 212 237 252
220 59 201 248 260 287 281 302 319 331 240 281 60 2 107 113 63 106 113 165 168 153 158 162 166 152 148 148 134 139 144 142 147 152 154 159 182 189 193 198 211 221 233 203
193 208 176 240 199 172 252 268 274 292 306 318 131 84 96 179 213 339 214 183 176 162 151 158 147 136 152 144 137 146 150 149 156 165 169 171 177 188 181 195 259 243 238 253